TimeEDT,TemperatureF,Dew PointF,Humidity,Sea Level PressureIn,VisibilityMPH,Wind Direction,Wind SpeedMPH,Gust SpeedMPH,PrecipitationIn,Events,Conditions,WindDirDegrees,DateUTC
12:56 AM,43.0,26.1,51,30.06,10.0,Calm,Calm,-,N/A,,Clear,0,2014-04-10 04:56:00
1:56 AM,39.0,28.0,65,30.08,10.0,Calm,Calm,-,N/A,,Clear,0,2014-04-10 05:56:00
2:56 AM,36.0,27.0,70,30.09,10.0,ESE,3.5,-,N/A,,Clear,110,2014-04-10 06:56:00
3:56 AM,35.1,27.0,72,30.10,10.0,Calm,Calm,-,N/A,,Clear,0,2014-04-10 07:56:00
4:56 AM,35.1,27.0,72,30.11,10.0,ENE,3.5,-,N/A,,Clear,70,2014-04-10 08:56:00
5:56 AM,35.1,28.0,76,30.13,10.0,Calm,Calm,-,N/A,,Clear,0,2014-04-10 09:56:00
6:56 AM,37.0,28.0,70,30.16,10.0,Calm,Calm,-,N/A,,Clear,0,2014-04-10 10:56:00
7:56 AM,42.8,32.0,66,30.18,10.0,ESE,3.5,-,N/A,,Clear,110,2014-04-10 11:56:00
8:56 AM,48.0,32.0,54,30.20,10.0,Calm,Calm,-,N/A,,Clear,0,2014-04-10 12:56:00
9:56 AM,53.1,32.0,45,30.18,10.0,SE,6.9,-,N/A,,Clear,140,2014-04-10 13:56:00
10:56 AM,59.0,28.9,32,30.17,10.0,SW,12.7,19.6,N/A,,Scattered Clouds,230,2014-04-10 14:56:00
11:56 AM,61.0,30.9,32,30.14,10.0,SW,10.4,20.7,N/A,,Partly Cloudy,230,2014-04-10 15:56:00
12:56 PM,64.0,30.9,29,30.11,10.0,South,15.0,25.3,N/A,,Clear,190,2014-04-10 16:56:00
1:56 PM,66.0,32.0,28,30.08,10.0,SSW,12.7,17.3,N/A,,Partly Cloudy,210,2014-04-10 17:56:00
2:56 PM,66.0,32.0,28,30.06,10.0,SSW,15.0,27.6,N/A,,Scattered Clouds,210,2014-04-10 18:56:00
3:56 PM,66.9,30.9,26,30.02,10.0,SW,13.8,23.0,N/A,,Mostly Cloudy,230,2014-04-10 19:56:00
4:56 PM,68.0,30.9,25,30.00,10.0,SW,15.0,23.0,N/A,,Mostly Cloudy,230,2014-04-10 20:56:00
5:56 PM,68.0,30.9,25,29.99,10.0,South,21.9,29.9,N/A,,Mostly Cloudy,190,2014-04-10 21:56:00
6:56 PM,66.9,32.0,27,29.98,10.0,SSW,15.0,23.0,N/A,,Mostly Cloudy,200,2014-04-10 22:56:00
7:56 PM,64.0,33.1,31,29.99,10.0,SSE,8.1,-,N/A,,Scattered Clouds,160,2014-04-10 23:56:00
8:56 PM,59.0,35.1,41,29.98,10.0,SE,9.2,-,N/A,,Partly Cloudy,140,2014-04-11 00:56:00
9:56 PM,55.9,35.1,45,29.99,10.0,SE,4.6,-,N/A,,Partly Cloudy,140,2014-04-11 01:56:00
10:56 PM,57.0,36.0,45,29.98,10.0,SSE,5.8,-,N/A,,Scattered Clouds,150,2014-04-11 02:56:00
11:56 PM,57.9,36.0,44,29.97,10.0,South,10.4,-,N/A,,Scattered Clouds,170,2014-04-11 03:56:00